Location: Le Rocchette
(44.3500°N, 7.8333°E)
Time: 22:28:04
(UTC+00:00)

PSLV R/B - Pass Details

Date: 01 March 2020
Orbit: 505 x 578 km, 97.8° (Epoch: 05 April)

Event Time Altitude Azimuth Distance (km) Brightness Sun altitude
Rises 05:29:28 0° 2° (N) 2,670 7.3 -7.2°
Reaches altitude 10° 05:31:44 10° 351° (N) 1,788 6.3 -6.8°
Maximum altitude 05:35:05 28° 291° (WNW) 1,020 4.7 -6.2°
Drops below altitude 10° 05:38:27 10° 231° (SW) 1,813 6.0 -5.6°
Sets 05:40:47 0° 220° (SW) 2,715 7.0 -5.2°
